Home > Weather > Sarajevo > Past weeks

Flag for Bosnia-Herzegovina Past Weather in Sarajevo, Bosnia-Herzegovina — Yesterday and Last 2 Weeks

Now
68 °F

Broken clouds.


Feels Like: 68 °F
Forecast: 56 / 79 °F
Wind: 3 mph from Northwest

Location: Sarajevo / Butmir

Current Time: Jun 28, 2016 at 1:31:48 PM

Latest Report: Jun 28, 2016 at 1:00 PM


Visibility: N/A

Pressure: 30.07 "Hg (28.28 "Hg at 526m altitude)

Humidity: 56%

Dew Point: 52 °F

Location of SarajevoLocation

Past Weather in Sarajevo — Graph

°F

Sarajevo Temperature Yesterday

Maximum temperature yesterday: 79 °F (at 1:00 PM)
Minimum temperature yesterday: 57 °F (at 4:00 AM)
Average temperature yesterday: 67 °F

High & Low Weather Summary for the Past Weeks

 TemperatureHumidityPressure
High93 °F (Jun 24, 3:30 PM)100% (Jun 13, 11:00 PM)30.27 "Hg (Jun 13, 11:00 PM)
Low52 °F (Jun 16, 5:00 AM)29% (Jun 16, 5:00 PM)29.59 "Hg (Jun 13, 1:30 PM)
Average71 °F68%30.00 "Hg
* Reported Jun 13 12:00 PM — Jun 28 12:30 PM, Sarajevo, Weather by CustomWeather, © 2016

Note: Actual official high and low records may vary slightly from our data, if they occured in-between our weather recording intervals... More about our weather records

Advertising

Sarajevo Weather History for the Previous 24 Hours

Scroll right to see more
 ConditionsComfort  
Time TempWeatherWind HumidityBarometerVisibility
12:30 PM
Tue, Jun 28
68 °FBroken clouds.8 mph53%30.07 "HgN/A
12:00 PM68 °FBroken clouds.7 mph56%30.07 "HgN/A
11:30 AM66 °FBroken clouds.5 mph56%30.09 "HgN/A
11:00 AM66 °FBroken clouds.3 mph56%30.09 "HgN/A
10:30 AM66 °FBroken clouds.5 mph64%30.09 "HgN/A
10:00 AM64 °FBroken clouds.7 mph64%30.09 "HgN/A
9:00 AM63 °FScattered clouds.5 mph73%30.09 "HgN/A
8:30 AM63 °FBroken clouds.5 mph73%30.09 "HgN/A
8:00 AM61 °FBroken clouds.3 mph83%30.09 "HgN/A
7:30 AM61 °FBroken clouds.6 mph83%30.09 "HgN/A
7:00 AM59 °FBroken clouds.5 mph94%30.09 "HgN/A
6:30 AM61 °FPartly sunny.5 mph83%30.09 "HgN/A
6:00 AM61 °FPartly cloudy.6 mph83%30.09 "HgN/A
5:30 AM61 °FPartly cloudy.5 mph83%30.09 "HgN/A
5:00 AM61 °FMostly cloudy.3 mph83%30.07 "HgN/A
4:00 AM61 °FPassing clouds.5 mph83%30.07 "HgN/A
3:00 AM61 °FPassing clouds.8 mph88%30.07 "HgN/A
2:00 AM63 °FPartly cloudy.3 mph94%30.07 "HgN/A
1:00 AM63 °FPassing clouds.No wind88%30.07 "HgN/A
12:00 AM63 °FPassing clouds.2 mph88%30.07 "HgN/A
11:00 PM
Mon, Jun 27
63 °FPassing clouds.5 mph88%30.07 "HgN/A
10:30 PM63 °FPassing clouds.2 mph94%30.07 "HgN/A
10:00 PM63 °FThunderstorms. Passing clouds.1 mph88%30.07 "HgN/A
9:30 PM64 °FThunderstorms. Broken clouds.6 mph78%30.07 "HgN/A
9:00 PM66 °FBroken clouds.6 mph78%30.07 "HgN/A
8:30 PM66 °FPartly sunny.10 mph78%30.04 "HgN/A
8:00 PM68 °FScattered clouds.10 mph73%30.01 "HgN/A
7:30 PM70 °FLight rain. Scattered clouds.3 mph83%30.01 "Hg5 mi
7:00 PM72 °FPassing clouds.1 mph65%29.98 "HgN/A
6:30 PM72 °FSunny.1 mph73%30.01 "Hg10 mi
6:00 PM72 °FPassing clouds.5 mph65%29.98 "HgN/A
5:00 PM73 °FPassing clouds.2 mph61%29.98 "HgN/A
4:30 PM70 °FPassing clouds.6 mph73%29.98 "HgN/A
4:00 PM66 °FThunderstorms. Scattered clouds.5 mph78%30.01 "HgN/A
3:30 PM70 °FThunderstorms. Scattered clouds.13 mph64%29.98 "HgN/A
3:00 PM73 °FThunderstorms. Scattered clouds.7 mph65%29.98 "HgN/A
2:30 PM77 °FThunderstorms. Scattered clouds.10 mph61%29.95 "HgN/A
2:00 PM79 °FThundershowers. Scattered clouds.5 mph48%29.95 "HgN/A
1:30 PM79 °FThundershowers. Passing clouds.3 mph51%29.95 "HgN/A
1:00 PM79 °FPassing clouds.2 mph48%29.95 "HgN/A
Weather by CustomWeather, © 2016

See weather overviewHow to use our weather pages